sat.trackr.live / text

‹ back to catalog

STARLINK-35162

NORAD 65613 · 2025-207X

PAYLOAD ACTIVE UNKNOWN

§ Identity

Operator
Country
US
Launch date
2025-09-13
Launch site
AFWTR
Launch vehicle
Mass (kg)
RCS (m²)

Purposes: comms

External: N2YO · Heavens-Above · Gunter

§ Orbital elements

Epoch: 2026-09-20T22:00:03.000096Z

Period
93.91 min
Inclination
97.2853°
Eccentricity
0.0001655
Mean motion
15.33401885 rev/d
Perigee alt
464.5 km
Apogee alt
466.8 km
Semi-major
6,843.8 km
B*
4.2413e-5
RAAN
326.4136°
Arg perigee
81.5772°
Mean anomaly
138.9170°
Rev number
579

§ Raw data

STARLINK-351621 65613U 25207X   26263.91670139  .00001293  00000+0  42413-4 0  99942 65613  97.2853 326.4136 0001655  81.5772 138.9170 15.33401885  5797

JSON: /api/v1/satellites/65613 · /tle

For live sub-satellite position, see the globe view (requires WebGL).

§ Visibility from observer

Set your observer location to see the next 7 days of passes ≥ 10°. The values pass through the URL so the page stays shareable.

No JS? Fill the form by hand. The geolocation button needs JavaScript.